Location: Clover
(42.5131°N, 114.6874°W)
Time: 15:42:01
(UTC+00:00)

ARIANE 6 FM1 Upper Stage - Pass Details

Date: 28 January 2026
Orbit: 522 x 608 km, 62.0° (Epoch: 17 February)

Event Time Altitude Azimuth Distance (km) Brightness Sun altitude
Rises 01:30:49 0° 235° (SW) 2,711 7.8 -8.5°
Reaches altitude 10° 01:33:09 10° 243° (WSW) 1,807 6.8 -8.9°
Maximum altitude 01:36:58 39° 314° (NW) 808 3.7 -9.6°
Drops below altitude 10° 01:40:45 10° 25° (NNE) 1,780 4.8 -10.3°
Enters shadow 01:41:40 - 29° (NNE) 2,129 5.2 -10.4°
